Regional Weather Roundup
Issued by NWS

Home | Current Version | Previous Version | Text Only | Print | Product List | Glossary On
Versions: 1 2 3 4 5 6 7 8 9 10 11 12 13 14 15 16 17 18 19 20 21 22 23 24 25 26 27 28
000
ASUS46 KSEW 251710
RWRWA

WASHINGTON REGIONAL WEATHER ROUNDUP
NATIONAL WEATHER SERVICE SEATTLE WA
1000 AM PDT TUE APR 25 2017

NOTE:"FAIR" INDICATES FEW OR NO CLOUDS BELOW 12,000 FEET WITH NO
SIGNIFICANT WEATHER AND/OR OBSTRUCTIONS TO VISIBILITY.

WAZ507-509-555>559-251800-
SEATTLE, TACOMA, EVERETT, AND VICINITY

CITY           SKY/WX    TMP DP  RH WIND       PRES   REMARKS
EVERETT        PTSUNNY   51  42  71 SE13      29.94S
BOEING FIELD   CLOUDY    52  45  77 S8        29.96F
RENTON         PTSUNNY   52  43  71 S9        29.95S
SEATAC AIRPORT PTSUNNY   51  43  74 S6        29.95F
JBLM-MCCHORD   CLOUDY    51  45  79 S10       29.95S
PUYALLUP         N/A     52  41  66 CALM      29.95R
BREMERTON      NOT AVBL
JBLM-FT LEWIS  PTSUNNY   51  40  66 VRB6      29.98S
TACOMA NARROWS CLOUDY    50  43  77 S7        29.96R
$$

WAZ001-503-506-510-514-515-251800-
NORTH INTERIOR

CITY           SKY/WX    TMP DP  RH WIND       PRES   REMARKS
BELLINGHAM     CLOUDY    51  43  74 S9        29.92F
FRIDAY HARBOR  CLOUDY    51  48  89 E8        29.92F
EASTSOUND      PTSUNNY   50  45  81 S7        29.91S
PORT ANGELES   CLOUDY    51  44  77 VRB5      29.90F
EDIZ HOOK      FAIR      51  45  80 E8        29.91F
PORT TOWNSEND  CLOUDY    52  45  76 CALM      29.93S
NAS WHIDBEY    CLOUDY    54  42  64 S13       29.96F
ARLINGTON      CLOUDY    52  39  62 SE13      29.97S
BURLINGTON     CLOUDY    52  43  71 SE7G14    29.94S
$$

WAZ020-022-039-040-504-511-512-251800-
SOUTHWEST INTERIOR

CITY           SKY/WX    TMP DP  RH WIND       PRES   REMARKS
SHELTON        CLOUDY    50  43  77 E6        29.93R
OLYMPIA        CLOUDY    50  44  80 S9        29.95S
CHEHALIS       CLOUDY    50  45  81 SW7G15    29.96R
KELSO          CLOUDY    50  43  77 S7        29.98R
VANCOUVER      CLOUDY    50  45  83 E6        29.97S
SCAPPOOSE, OR  LGT RAIN  49  45  86 SE8       29.97R
PORTLAND, OR   CLOUDY    50  44  80 E7        29.97F
$$

WAZ021-516-517-251800-
WASHINGTON COAST

CITY           SKY/WX    TMP DP  RH WIND       PRES   REMARKS
FORKS          LGT RAIN  47  46  97 SE9       29.90R FOG
HOQUIAM        CLOUDY    49  46  90 E9        29.94R
ASTORIA, OR    CLOUDY    50  41  71 SE8       29.93R
$$

WAZ019-023-024-040-567>569-251800-
CASCADE MOUNTAINS AND COLUMBIA GORGE

CITY           SKY/WX    TMP DP  RH WIND       PRES   REMARKS
STAMPEDE PASS  CLOUDY    35  35 100 VRB5      29.88F
TROUTDALE, OR  CLOUDY    52  44  74 VRB3      29.96F
THE DALLES, OR PTSUNNY   54  39  57 NW8       29.95F
$$

WAZ026-027-041>044-520-521-251800-
EAST SLOPES

CITY           SKY/WX    TMP DP  RH WIND       PRES   REMARKS
OMAK           PTSUNNY   51  38  60 VRB3      29.86F
WENATCHEE      SUNNY     54  33  45 NW10      29.86F
ELLENSBURG     SUNNY     53  35  50 NW17G28   29.87F
YAKIMA         MOSUNNY   56  35  45 VRB3      29.89F
SUNNYSIDE ARPT SUNNY     52  36  53 CALM      29.90F
$$

WAZ028-034-035-251800-
COLUMBIA BASIN

CITY           SKY/WX    TMP DP  RH WIND       PRES   REMARKS
EPHRATA        SUNNY     53  37  54 S6        29.87F
MOSES LAKE     SUNNY     55  38  52 S3        29.88F
PASCO          MOSUNNY   56  40  55 SW16      29.94S
HERMISTON, OR  CLOUDY    54  41  61 SW17G25   29.94F
$$

WAZ036>038-251800-
NORTHEAST WASHINGTON

CITY           SKY/WX    TMP DP  RH WIND       PRES   REMARKS
SPOKANE GEIGER FOG       42  40  92 SW15      29.89S VSB 1/2
SPOKANE FELTS  CLOUDY    46  42  86 SW8       29.90R
FAIRCHILD AFB  CLOUDY    42  42 100 SW13      29.88R
COEURDALENE,ID CLOUDY    46  41  82 W13       29.89R
DEER PARK      CLOUDY    44  40  85 S10       29.89R
$$

WAZ029>033-251800-
SOUTHEAST WASHINGTON

CITY           SKY/WX    TMP DP  RH WIND       PRES   REMARKS
PULLMAN        CLOUDY    45  40  82 W13       29.92S
LEWISTON, ID   CLOUDY    52  42  69 CALM      29.91S
WALLA WALLA    CLOUDY    52  40  63 SW17      29.96R
PENDLETON, OR  PTSUNNY   49  40  71 W21G28    29.95R
$$




USA.gov is the U.S. government's official web portal to all federal, state and local government web resources and services.